Regional Weather Roundup
Issued by NWS

Home | Current Version | Previous Version | Graphics & Text | Print | Product List | Glossary Off
Versions: 1 2 3 4 5 6 7 8 9 10 11 12 13 14 15 16 17 18 19 20 21 22 23 24 25 26 27 28 29 30 31 32 33 34 35 36 37 38 39 40 41 42 43 44 45 46 47 48 49 50

000
ASUS45 KTFX 251019
RWRMT
MONTANA HOURLY WEATHER ROUNDUP
NATIONAL WEATHER SERVICE GREAT FALLS MT
419 AM MDT SAT OCT 25 2014

NOTE: "FAIR" INDICATES FEW OR NO CLOUDS BELOW 12000 FEET WITH NO
SIGNIFICANT WEATHER AND/OR OBSTRUCTIONS TO VISIBILITY.

* THESE STATIONS ARE NOT UNDER NWS QUALITY CONTROL. THEY DO NOT
   REPORT WEATHER SUCH AS PRECIPITATION OR FOG.

MTZ001>007-043-251100-
WEST OF THE DIVIDE
CITY           SKY/WX    TMP DP  RH WIND       PRES   REMARKS
KALISPELL      CLOUDY    39  37  93 NW3       29.98F
MISSOULA       FOG       43  43 100 CALM      30.00F VSB 3
BUTTE          PTCLDY    30  30 100 CALM      30.08F
MULLAN PASS    FOG       36  36 100 S10G17    29.94F VSB M1/4 WCI  29
* ESSEX        N/A       39  36  89 S8         N/A   WCI  33
* LINCOLN      N/A       32  31  96 E1         N/A
* LOOKOUT PASS N/A       40  40 100 S11G16     N/A   WCI  33
* POLSON       N/A       39  39 100 N/A        N/A
* RONAN APT    CLOUDY    39  37  93 N/A        N/A
* SEELEY LAKE  N/A       34  33  96 N/A        N/A
* THOMP F APT  CLOUDY    46  26  46 NE5        N/A
* YAAK HILL    N/A       43  40  89 SE1        N/A
$$

MTZ008-052>055-251100-
SOUTHWEST MONTANA
CITY           SKY/WX    TMP DP  RH WIND       PRES   REMARKS
BOZEMAN        PTCLDY    30  30 100 SE3       30.08S
DILLON         PTCLDY    32  30  92 SE3       30.07F
W YELLOWSTONE  CLEAR     27  25  92 CALM      30.18F
* THREE FORKS  PTCLDY    34  16  48 N/A        N/A
* BOULDER HILL N/A       36  33  89 SW13       N/A   WCI  27
* MONIDA PASS  N/A       39  25  57 SE12       N/A   WCI  32
* RAYNOLDS PAS N/A       40  22  49 SE13       N/A   WCI  32
* WHITEHALL    N/A       35  34  96 N4         N/A
* WISE RIVER   N/A       36  35  96 E3         N/A
$$

MTZ009>010-012-014-046-048-049-054-251100-
EAST SLOPES AND CENTRAL MONTANA
CITY           SKY/WX    TMP DP  RH WIND       PRES   REMARKS
CUT BANK       CLOUDY    43  32  65 NE6       30.02F
GREAT FALLS    MOCLDY    43  39  86 E5        30.01F
HELENA         CLOUDY    39  36  89 CALM      30.04F
* CONRAD       CLOUDY    43  36  76 N/A        N/A
* DEARBORN     N/A       40  39  96 SE3        N/A
* EAST GLACIER N/A       38  35  89 NW1        N/A
* MONARCH      N/A       37  33  85 S4         N/A
* PENDROY      N/A       37  34  89 NE3        N/A
* ROGERS PASS  N/A       38  34  86 N/A        N/A
* SAINT MARY   N/A       38  34  86 SE2        N/A
* SWEET GRASS  N/A       42  31  65 S9         N/A
* WHITE SULPH  N/A       41  36  82 NE7G12     N/A
$$

MTZ011-013-016-021-035-040-045-047-050-051-251100-
NORTH CENTRAL MONTANA
CITY           SKY/WX    TMP DP  RH WIND       PRES   REMARKS
HAVRE          CLOUDY    43  34  71 E5        30.07F
LEWISTOWN      CLOUDY    39  36  89 SE7       30.06F WCI  34
* CHINOOK      CLOUDY    39  34  82 CALM      30.08F
* FORT BENTON  MOCLDY    43  36  76 N6        30.04F
* CHESTER      N/A       41  32  70 N1         N/A
* DENTON       N/A       38  37  96 SE6        N/A   WCI  33
* GEYSER       N/A       35  35 100 S6         N/A   WCI  30
* JUDITH GAP   N/A       36  36 100 S8         N/A   WCI  30
* LOMA         N/A       43  35  73 NE11       N/A
$$

MTZ017>020-022>027-061-062-251100-
NORTHEAST MONTANA
CITY           SKY/WX    TMP DP  RH WIND       PRES   REMARKS
GLASGOW        CLOUDY    43  32  65 SE3       30.09S
GLENDIVE       PTCLDY    39  30  70 CALM      30.13S
JORDAN         PTCLDY    30  28  92 CALM      30.10F
SIDNEY         CLOUDY    45  34  65 CALM      30.13S
WOLF POINT     CLOUDY    43  34  71 CALM      30.11R
* BEAVER HILL  N/A       46  30  54 S10        N/A
* CIRCLE       N/A       46  34  63 N/A        N/A
* LINDSAY DVD  N/A       43  29  58 W3         N/A
* NAVAJO       N/A       40  27  60 W12        N/A   WCI  33
$$

MTZ028>042-056>058-251100-
SOUTHCENTRAL AND SOUTHEAST MONTANA
CITY           SKY/WX    TMP DP  RH WIND       PRES   REMARKS
BAKER          PTCLDY    34  28  79 SE5       30.14S WCI  29
BILLINGS       MOCLDY    41  34  76 SW7       30.09F
LIVINGSTON     PTCLDY    34  30  85 SW5       30.10S WCI  29
MILES CITY     MOCLDY    43  34  71 SE6       30.11F
* LAUREL APT   MOCLDY    36  28  73 N/A        N/A
* ROUNDUP APT  MOCLDY    36  30  79 N/A        N/A
* ALZADA       N/A       36  30  79 E2         N/A
* HYSHAM       N/A       49  29  46 SE2        N/A
* LAME DEER    N/A       45  29  54 SE6        N/A
* REED POINT   N/A       33  32  96 N/A        N/A
* ROSCOE HILL  N/A       40  32  73 W4G9       N/A
$$

REGIONAL REPORTS...DAKOTAS
CITY           SKY/WX    TMP DP  RH WIND       PRES   REMARKS
WILLISTON      MOCLDY    41  30  65 CALM      30.10R
DICKINSON      MOCLDY    45  32  60 W6        30.10R
BEACH          N/A       37  32  82 SW3       30.13R
CROSBY         CLEAR     36  28  73 W8        30.09R WCI  30
TIOGA          CLEAR     36  32  85 W5        30.13R WCI  32
BISMARCK       MOCLDY    45  32  60 NW6       30.10S
GRAND FORKS    PTCLDY    43  34  71 W9        29.99R
FARGO          PTCLDY    43  32  65 W10       30.02R
BUFFALO SD     CLEAR     46  30  54 CALM      30.08S
RAPID CITY     CLEAR     43  32  65 NW8       30.15F
$$

REGIONAL REPORTS...WYOMING/IDAHO/WASHINGTON
CITY           SKY/WX    TMP DP  RH WIND       PRES   REMARKS
GILLETTE       PTCLDY    30  27  89 S5        30.13F WCI  25
SHERIDAN       PTCLDY    32  27  82 NW7       30.11F WCI  25
CODY           CLEAR     36  32  85 CALM      30.11S
YELLOWSTONE LA PTCLDY    27  23  85 NW3       30.27F
SALMON         CLOUDY    41  39  93 S3        30.05F
MULLAN PASS    FOG       36  36 100 S10G17    29.94S VSB M1/4 WCI  29
SAND POINT     CLOUDY    45  37  74 NE15      29.91F
SPOKANE        CLOUDY    45  43  93 NE9       29.83F
$$

REGIONAL REPORTS...ALBERTA
CITY           SKY/WX    TMP DP  RH WIND       PRES   REMARKS
CALGARY        MOCLDY    34  18  52 CALM      30.03F
LETHBRIDGE     CLOUDY    37  32  82 CALM      30.03F
MEDICINE HAT   CLEAR     36  28  73 S3        30.05S
EDMONTON       N/A       25  16  69 SW5       30.02F WCI  19
WATERTON GATE  N/A       39  32  76 SW5        N/A   WCI  35
CARDSTON       N/A       39  34  82 SE3        N/A
$$

REGIONAL REPORTS...SASKATCHEWAN
CITY           SKY/WX    TMP DP  RH WIND       PRES   REMARKS
SWIFT CURRENT  CLOUDY    34  28  79 SW10      30.05F WCI  26
REGINA         N/A       28  27  96 W5        30.06S WCI  22
VAL MARIE      N/A       34  30  85 SW5        N/A   WCI  29
ASSINIBOIA     N/A       34  28  79 W1         N/A

$$




USA.gov is the U.S. government's official web portal to all federal, state and local government web resources and services.